Wetterdaten: Freitag, 17.10.2014
Datum Zeit Temp. A. Feuchte A. Luftdruck Regen Wind Richtung Richtung Sonnenschein ET UV Solar Taupunkt Windchill Windben Empfang
17.10.2014 00:00 14,1 C 81 % 1010,1 hPa 0,0 l/m 0,4 km/h (0 Bft) W-SW 252 0 min 0,000 mm 0,0 UV-I 0 W/m 10,9 C 14,1 C 4,0 km/h (1 Bft) 0,00 %
17.10.2014 00:15 14,1 C 81 % 1010,2 hPa 0,0 l/m 0,4 km/h (0 Bft) W 268 0 min 0,000 mm 0,0 UV-I 0 W/m 10,9 C 14,1 C 4,0 km/h (1 Bft) 0,00 %
17.10.2014 00:30 14,0 C 82 % 1010,3 hPa 0,0 l/m 0,0 km/h (0 Bft) SW 228 0 min 0,000 mm 0,0 UV-I 0 W/m 11,0 C 14,0 C 0,0 km/h (0 Bft) 0,00 %
17.10.2014 00:45 13,9 C 82 % 1010,2 hPa 0,0 l/m 0,0 km/h (0 Bft) SW 220 0 min 0,000 mm 0,0 UV-I 0 W/m 10,9 C 13,9 C 0,0 km/h (0 Bft) 0,00 %
17.10.2014 01:00 13,8 C 82 % 1010,0 hPa 0,0 l/m 0,0 km/h (0 Bft) SW 219 0 min 0,000 mm 0,0 UV-I 0 W/m 10,8 C 13,8 C 0,0 km/h (0 Bft) 0,00 %
17.10.2014 01:15 13,7 C 82 % 1010,1 hPa 0,0 l/m 0,0 km/h (0 Bft) SW 229 0 min 0,000 mm 0,0 UV-I 0 W/m 10,7 C 13,7 C 0,0 km/h (0 Bft) 0,00 %
17.10.2014 01:30 13,6 C 82 % 1010,1 hPa 0,0 l/m 0,0 km/h (0 Bft) S 186 0 min 0,000 mm 0,0 UV-I 0 W/m 10,6 C 13,6 C 0,0 km/h (0 Bft) 0,00 %
17.10.2014 01:45 13,6 C 82 % 1009,9 hPa 0,0 l/m 0,0 km/h (0 Bft) S-SW 204 0 min 0,000 mm 0,0 UV-I 0 W/m 10,6 C 13,6 C 0,0 km/h (0 Bft) 0,00 %
17.10.2014 02:00 13,5 C 83 % 1009,2 hPa 0,0 l/m 0,0 km/h (0 Bft) SW 214 0 min 0,000 mm 0,0 UV-I 0 W/m 10,7 C 13,5 C 0,0 km/h (0 Bft) 0,00 %
17.10.2014 02:15 13,4 C 83 % 1009,3 hPa 0,0 l/m 0,0 km/h (0 Bft) S-SW 198 0 min 0,000 mm 0,0 UV-I 0 W/m 10,6 C 13,4 C 0,0 km/h (0 Bft) 0,00 %
17.10.2014 02:30 13,3 C 83 % 1009,0 hPa 0,0 l/m 0,0 km/h (0 Bft) S-SW 196 0 min 0,000 mm 0,0 UV-I 0 W/m 10,5 C 13,3 C 0,0 km/h (0 Bft) 0,00 %
17.10.2014 02:45 13,2 C 84 % 1008,8 hPa 0,0 l/m 0,0 km/h (0 Bft) S 187 0 min 0,000 mm 0,0 UV-I 0 W/m 10,6 C 13,2 C 0,0 km/h (0 Bft) 0,00 %
17.10.2014 03:00 13,1 C 84 % 1009,2 hPa 0,0 l/m 0,0 km/h (0 Bft) SO 132 0 min 0,000 mm 0,0 UV-I 0 W/m 10,5 C 13,1 C 0,0 km/h (0 Bft) 0,00 %
17.10.2014 03:15 12,9 C 84 % 1008,9 hPa 0,0 l/m 0,0 km/h (0 Bft) S 190 0 min 0,000 mm 0,0 UV-I 0 W/m 10,3 C 12,9 C 0,0 km/h (0 Bft) 0,00 %
17.10.2014 03:30 13,0 C 85 % 1008,8 hPa 0,0 l/m 0,0 km/h (0 Bft) O-SO 115 0 min 0,000 mm 0,0 UV-I 0 W/m 10,5 C 13,0 C 0,0 km/h (0 Bft) 0,00 %
17.10.2014 03:45 13,0 C 85 % 1008,3 hPa 0,0 l/m 0,0 km/h (0 Bft) SO 137 0 min 0,000 mm 0,0 UV-I 0 W/m 10,5 C 13,0 C 0,0 km/h (0 Bft) 0,00 %
17.10.2014 04:00 13,0 C 85 % 1008,3 hPa 0,0 l/m 0,0 km/h (0 Bft) O-SO 121 0 min 0,000 mm 0,0 UV-I 0 W/m 10,5 C 13,0 C 0,0 km/h (0 Bft) 0,00 %
17.10.2014 04:15 13,0 C 85 % 1008,2 hPa 0,0 l/m 0,0 km/h (0 Bft) S 174 0 min 0,000 mm 0,0 UV-I 0 W/m 10,5 C 13,0 C 0,0 km/h (0 Bft) 0,00 %
17.10.2014 04:30 13,0 C 85 % 1007,8 hPa 0,0 l/m 0,0 km/h (0 Bft) SO 124 0 min 0,000 mm 0,0 UV-I 0 W/m 10,5 C 13,0 C 0,0 km/h (0 Bft) 0,00 %
17.10.2014 04:45 13,1 C 85 % 1007,8 hPa 0,0 l/m 0,0 km/h (0 Bft) SO 133 0 min 0,000 mm 0,0 UV-I 0 W/m 10,6 C 13,1 C 0,0 km/h (0 Bft) 0,00 %
17.10.2014 05:00 13,1 C 84 % 1007,5 hPa 0,0 l/m 0,0 km/h (0 Bft) O-SO 110 0 min 0,000 mm 0,0 UV-I 0 W/m 10,5 C 13,1 C 0,0 km/h (0 Bft) 0,00 %
17.10.2014 05:15 13,0 C 84 % 1007,3 hPa 0,0 l/m 0,0 km/h (0 Bft) S-SO 154 0 min 0,000 mm 0,0 UV-I 0 W/m 10,4 C 13,0 C 0,0 km/h (0 Bft) 0,00 %
17.10.2014 05:30 13,0 C 84 % 1007,3 hPa 0,0 l/m 0,0 km/h (0 Bft) SO 124 0 min 0,000 mm 0,0 UV-I 0 W/m 10,4 C 13,0 C 0,0 km/h (0 Bft) 0,00 %
17.10.2014 05:45 12,9 C 85 % 1006,9 hPa 0,0 l/m 0,0 km/h (0 Bft) O-SO 104 0 min 0,000 mm 0,0 UV-I 0 W/m 10,4 C 12,9 C 0,0 km/h (0 Bft) 0,00 %
17.10.2014 06:00 12,9 C 85 % 1006,7 hPa 0,0 l/m 0,0 km/h (0 Bft) O-SO 110 0 min 0,000 mm 0,0 UV-I 0 W/m 10,4 C 12,9 C 0,0 km/h (0 Bft) 0,00 %
17.10.2014 06:15 12,9 C 85 % 1006,7 hPa 0,0 l/m 0,0 km/h (0 Bft) N 356 0 min 0,000 mm 0,0 UV-I 0 W/m 10,4 C 12,9 C 0,0 km/h (0 Bft) 0,00 %
17.10.2014 06:30 12,9 C 85 % 1006,6 hPa 0,0 l/m 0,0 km/h (0 Bft) N 354 0 min 0,000 mm 0,0 UV-I 0 W/m 10,4 C 12,9 C 0,0 km/h (0 Bft) 0,00 %
17.10.2014 06:45 12,9 C 85 % 1006,1 hPa 0,0 l/m 0,0 km/h (0 Bft) S 191 0 min 0,000 mm 0,0 UV-I 0 W/m 10,4 C 12,9 C 0,0 km/h (0 Bft) 0,00 %
17.10.2014 07:00 13,0 C 85 % 1006,9 hPa 0,0 l/m 0,0 km/h (0 Bft) S 190 0 min 0,000 mm 0,0 UV-I 0 W/m 10,5 C 13,0 C 0,0 km/h (0 Bft) 0,00 %
17.10.2014 07:15 13,0 C 85 % 1006,5 hPa 0,3 l/m 0,4 km/h (0 Bft) O-NO 63 0 min 0,000 mm 0,0 UV-I 0 W/m 10,5 C 13,0 C 4,0 km/h (1 Bft) 0,00 %
17.10.2014 07:30 13,0 C 85 % 1006,6 hPa 0,0 l/m 0,4 km/h (0 Bft) O-SO 121 0 min 0,000 mm 0,0 UV-I 0 W/m 10,5 C 13,0 C 4,0 km/h (1 Bft) 0,00 %
17.10.2014 07:45 13,0 C 85 % 1006,6 hPa 0,3 l/m 0,0 km/h (0 Bft) N-NO 31 0 min 0,000 mm 0,0 UV-I 0 W/m 10,5 C 13,0 C 0,0 km/h (0 Bft) 0,00 %
17.10.2014 08:00 13,0 C 85 % 1007,2 hPa 0,3 l/m 0,4 km/h (0 Bft) N-NW 338 0 min 0,000 mm 0,0 UV-I 0 W/m 10,5 C 13,0 C 4,0 km/h (1 Bft) 0,00 %
17.10.2014 08:15 13,0 C 85 % 1006,9 hPa 0,3 l/m 0,4 km/h (0 Bft) S 172 0 min 0,000 mm 0,0 UV-I 1 W/m 10,5 C 13,0 C 4,0 km/h (1 Bft) 0,00 %
17.10.2014 08:30 13,0 C 85 % 1006,5 hPa 0,3 l/m 2,2 km/h (1 Bft) O 99 0 min 0,000 mm 0,0 UV-I 12 W/m 10,5 C 13,0 C 4,0 km/h (1 Bft) 0,00 %
17.10.2014 08:45 13,1 C 85 % 1006,5 hPa 0,3 l/m 1,8 km/h (1 Bft) O-SO 106 0 min 0,000 mm 0,0 UV-I 35 W/m 10,6 C 13,1 C 4,0 km/h (1 Bft) 0,00 %
17.10.2014 09:00 13,1 C 85 % 1006,4 hPa 0,0 l/m 0,0 km/h (0 Bft) O 85 0 min 0,000 mm 1,0 UV-I 22 W/m 10,6 C 13,1 C 0,0 km/h (0 Bft) 0,00 %
17.10.2014 09:15 13,2 C 85 % 1005,8 hPa 0,3 l/m 8,3 km/h (2 Bft) S-SO 148 0 min 0,000 mm 1,0 UV-I 35 W/m 10,7 C 12,0 C 11,9 km/h (2 Bft) 0,00 %
17.10.2014 09:30 13,3 C 85 % 1006,1 hPa 0,3 l/m 0,0 km/h (0 Bft) SO 136 0 min 0,000 mm 1,0 UV-I 56 W/m 10,8 C 13,3 C 0,0 km/h (0 Bft) 0,00 %
17.10.2014 09:45 13,4 C 85 % 1006,8 hPa 0,6 l/m 0,0 km/h (0 Bft) W-NW 284 0 min 0,000 mm 1,0 UV-I 55 W/m 10,9 C 13,4 C 0,0 km/h (0 Bft) 0,00 %
17.10.2014 10:00 13,6 C 84 % 1006,7 hPa 0,3 l/m 0,7 km/h (0 Bft) W-NW 294 0 min 0,000 mm 1,0 UV-I 66 W/m 10,9 C 13,6 C 4,0 km/h (1 Bft) 0,00 %
17.10.2014 10:15 13,4 C 85 % 1007,5 hPa 0,6 l/m 0,0 km/h (0 Bft) SW 225 0 min 0,000 mm 1,0 UV-I 35 W/m 10,9 C 13,4 C 0,0 km/h (0 Bft) 0,00 %
17.10.2014 10:30 13,2 C 85 % 1008,2 hPa 0,9 l/m 0,0 km/h (0 Bft) W-SW 252 0 min 0,000 mm 0,0 UV-I 32 W/m 10,7 C 13,2 C 0,0 km/h (0 Bft) 0,00 %
17.10.2014 10:45 13,1 C 85 % 1008,4 hPa 1,5 l/m 0,4 km/h (0 Bft) SW 232 0 min 0,000 mm 0,0 UV-I 25 W/m 10,6 C 13,1 C 4,0 km/h (1 Bft) 0,00 %
17.10.2014 11:00 13,0 C 85 % 1008,3 hPa 0,3 l/m 0,0 km/h (0 Bft) S-SO 153 0 min 0,000 mm 1,0 UV-I 16 W/m 10,5 C 13,0 C 0,0 km/h (0 Bft) 0,00 %
17.10.2014 11:15 13,1 C 85 % 1008,7 hPa 0,0 l/m 0,0 km/h (0 Bft) NO 45 0 min 0,000 mm 1,0 UV-I 31 W/m 10,6 C 13,1 C 0,0 km/h (0 Bft) 0,00 %
17.10.2014 11:30 13,1 C 85 % 1009,1 hPa 0,3 l/m 0,0 km/h (0 Bft) W-SW 251 0 min 0,000 mm 1,0 UV-I 75 W/m 10,6 C 13,1 C 0,0 km/h (0 Bft) 0,00 %
17.10.2014 11:45 13,2 C 85 % 1009,7 hPa 0,0 l/m 0,0 km/h (0 Bft) N-NW 348 0 min 0,000 mm 0,0 UV-I 74 W/m 10,7 C 13,2 C 0,0 km/h (0 Bft) 0,00 %
17.10.2014 12:00 12,8 C 84 % 1009,9 hPa 0,0 l/m 0,7 km/h (0 Bft) NW 322 0 min 0,000 mm 1,0 UV-I 53 W/m 10,2 C 12,8 C 4,0 km/h (1 Bft) 0,00 %
17.10.2014 12:15 12,4 C 84 % 1010,9 hPa 1,5 l/m 4,7 km/h (1 Bft) W-NW 287 0 min 0,000 mm 0,0 UV-I 28 W/m 9,8 C 12,4 C 7,9 km/h (2 Bft) 0,00 %
17.10.2014 12:30 12,1 C 84 % 1012,5 hPa 0,0 l/m 0,7 km/h (0 Bft) W-SW 256 0 min 0,000 mm 1,0 UV-I 42 W/m 9,5 C 12,1 C 4,0 km/h (1 Bft) 0,00 %
17.10.2014 12:45 12,2 C 84 % 1013,5 hPa 0,0 l/m 0,0 km/h (0 Bft) O-SO 107 0 min 0,000 mm 2,0 UV-I 66 W/m 9,6 C 12,2 C 0,0 km/h (0 Bft) 0,00 %
17.10.2014 13:00 12,8 C 84 % 1013,6 hPa 0,0 l/m 0,4 km/h (0 Bft) W-SW 255 0 min 0,000 mm 2,0 UV-I 173 W/m 10,2 C 12,8 C 4,0 km/h (1 Bft) 0,00 %
17.10.2014 13:15 13,4 C 83 % 1014,2 hPa 0,0 l/m 1,4 km/h (1 Bft) W-SW 254 0 min 0,000 mm 2,0 UV-I 189 W/m 10,6 C 13,4 C 4,0 km/h (1 Bft) 0,00 %
17.10.2014 13:30 13,5 C 83 % 1015,0 hPa 0,3 l/m 0,4 km/h (0 Bft) SW 225 0 min 0,000 mm 2,0 UV-I 165 W/m 10,7 C 13,5 C 4,0 km/h (1 Bft) 0,00 %
17.10.2014 13:45 13,1 C 82 % 1015,4 hPa 0,0 l/m 4,3 km/h (1 Bft) W-SW 252 0 min 0,000 mm 1,0 UV-I 142 W/m 10,1 C 13,1 C 7,9 km/h (2 Bft) 0,00 %
17.10.2014 14:00 13,1 C 82 % 1015,4 hPa 0,0 l/m 4,0 km/h (1 Bft) W-SW 256 0 min 0,000 mm 2,0 UV-I 148 W/m 10,1 C 13,1 C 7,9 km/h (2 Bft) 0,00 %
17.10.2014 14:15 13,2 C 82 % 1015,8 hPa 0,0 l/m 0,4 km/h (0 Bft) O-SO 113 0 min 0,000 mm 1,0 UV-I 156 W/m 10,2 C 13,2 C 4,0 km/h (1 Bft) 0,00 %
17.10.2014 14:30 13,0 C 82 % 1015,8 hPa 0,0 l/m 0,0 km/h (0 Bft) SO 142 0 min 0,000 mm 1,0 UV-I 136 W/m 10,0 C 13,0 C 0,0 km/h (0 Bft) 0,00 %
17.10.2014 14:45 13,2 C 82 % 1015,8 hPa 0,0 l/m 1,4 km/h (1 Bft) N-NW 344 0 min 0,000 mm 2,0 UV-I 124 W/m 10,2 C 13,2 C 4,0 km/h (1 Bft) 0,00 %
17.10.2014 15:00 13,2 C 82 % 1015,8 hPa 0,0 l/m 0,4 km/h (0 Bft) S-SW 210 0 min 0,000 mm 1,0 UV-I 129 W/m 10,2 C 13,2 C 4,0 km/h (1 Bft) 0,00 %
17.10.2014 15:15 13,2 C 81 % 1015,9 hPa 0,0 l/m 0,0 km/h (0 Bft) S-SW 203 0 min 0,000 mm 2,0 UV-I 120 W/m 10,0 C 13,2 C 0,0 km/h (0 Bft) 0,00 %
17.10.2014 15:30 13,7 C 80 % 1016,3 hPa 0,0 l/m 0,0 km/h (0 Bft) N-NO 12 0 min 0,000 mm 2,0 UV-I 134 W/m 10,3 C 13,7 C 0,0 km/h (0 Bft) 0,00 %
17.10.2014 15:45 13,7 C 80 % 1016,6 hPa 0,0 l/m 2,2 km/h (1 Bft) NO 43 0 min 0,000 mm 1,0 UV-I 141 W/m 10,3 C 13,7 C 7,9 km/h (2 Bft) 0,00 %
17.10.2014 16:00 13,4 C 82 % 1016,6 hPa 0,0 l/m 0,0 km/h (0 Bft) SW 216 0 min 0,000 mm 1,0 UV-I 67 W/m 10,4 C 13,4 C 0,0 km/h (0 Bft) 0,00 %
17.10.2014 16:15 13,3 C 82 % 1017,0 hPa 0,0 l/m 1,4 km/h (1 Bft) SO 133 0 min 0,000 mm 0,0 UV-I 39 W/m 10,3 C 13,3 C 4,0 km/h (1 Bft) 0,00 %
17.10.2014 16:30 13,6 C 81 % 1017,1 hPa 0,0 l/m 0,4 km/h (0 Bft) NO 38 0 min 0,000 mm 1,0 UV-I 86 W/m 10,4 C 13,6 C 4,0 km/h (1 Bft) 0,00 %
17.10.2014 16:45 14,2 C 79 % 1016,9 hPa 0,0 l/m 0,7 km/h (0 Bft) W-SW 256 15 min 0,000 mm 1,0 UV-I 144 W/m 10,6 C 14,2 C 4,0 km/h (1 Bft) 0,00 %
17.10.2014 17:00 13,9 C 78 % 1017,3 hPa 0,0 l/m 1,4 km/h (1 Bft) W-SW 255 15 min 0,000 mm 1,0 UV-I 235 W/m 10,1 C 13,9 C 4,0 km/h (1 Bft) 0,00 %
17.10.2014 17:15 13,3 C 79 % 1017,3 hPa 0,0 l/m 4,0 km/h (1 Bft) W-SW 256 0 min 0,000 mm 1,0 UV-I 55 W/m 9,7 C 13,3 C 7,9 km/h (2 Bft) 0,00 %
17.10.2014 17:30 13,1 C 78 % 1017,6 hPa 0,0 l/m 0,0 km/h (0 Bft) S 174 0 min 0,000 mm 0,0 UV-I 42 W/m 9,4 C 13,1 C 0,0 km/h (0 Bft) 0,00 %
17.10.2014 17:45 12,8 C 80 % 1017,9 hPa 0,0 l/m 0,0 km/h (0 Bft) W 265 0 min 0,000 mm 0,0 UV-I 11 W/m 9,4 C 12,8 C 0,0 km/h (0 Bft) 0,00 %
17.10.2014 18:00 12,8 C 82 % 1018,0 hPa 0,0 l/m 0,0 km/h (0 Bft) S 189 0 min 0,000 mm 0,0 UV-I 1 W/m 9,8 C 12,8 C 0,0 km/h (0 Bft) 0,00 %
17.10.2014 18:15 12,7 C 82 % 1017,9 hPa 0,0 l/m 0,0 km/h (0 Bft) S 180 0 min 0,000 mm 0,0 UV-I 0 W/m 9,7 C 12,7 C 0,0 km/h (0 Bft) 0,00 %
17.10.2014 18:30 12,6 C 81 % 1018,5 hPa 0,0 l/m 0,0 km/h (0 Bft) S 185 0 min 0,000 mm 0,0 UV-I 0 W/m 9,4 C 12,6 C 0,0 km/h (0 Bft) 0,00 %
17.10.2014 18:45 12,3 C 81 % 1018,6 hPa 0,0 l/m 0,0 km/h (0 Bft) SW 229 0 min 0,000 mm 0,0 UV-I 0 W/m 9,1 C 12,3 C 0,0 km/h (0 Bft) 0,00 %
17.10.2014 19:00 12,2 C 82 % 1018,7 hPa 0,0 l/m 0,0 km/h (0 Bft) S-SW 205 0 min 0,000 mm 0,0 UV-I 0 W/m 9,2 C 12,2 C 0,0 km/h (0 Bft) 0,00 %
17.10.2014 19:15 11,8 C 82 % 1019,1 hPa 0,0 l/m 0,0 km/h (0 Bft) SW 216 0 min 0,000 mm 0,0 UV-I 0 W/m 8,8 C 11,8 C 0,0 km/h (0 Bft) 0,00 %
17.10.2014 19:30 11,6 C 82 % 1019,3 hPa 0,0 l/m 0,0 km/h (0 Bft) S-SW 213 0 min 0,000 mm 0,0 UV-I 0 W/m 8,6 C 11,6 C 0,0 km/h (0 Bft) 0,00 %
17.10.2014 19:45 11,4 C 84 % 1019,5 hPa 0,0 l/m 0,0 km/h (0 Bft) S-SW 213 0 min 0,000 mm 0,0 UV-I 0 W/m 8,8 C 11,4 C 0,0 km/h (0 Bft) 0,00 %
17.10.2014 20:00 11,4 C 83 % 1019,8 hPa 0,0 l/m 0,0 km/h (0 Bft) W-SW 252 0 min 0,000 mm 0,0 UV-I 0 W/m 8,6 C 11,4 C 0,0 km/h (0 Bft) 0,00 %
17.10.2014 20:15 11,7 C 83 % 1019,8 hPa 0,0 l/m 0,0 km/h (0 Bft) W-SW 256 0 min 0,000 mm 0,0 UV-I 0 W/m 8,9 C 11,7 C 0,0 km/h (0 Bft) 0,00 %
17.10.2014 20:30 11,8 C 83 % 1019,6 hPa 0,0 l/m 0,0 km/h (0 Bft) W-SW 255 0 min 0,000 mm 0,0 UV-I 0 W/m 9,0 C 11,8 C 0,0 km/h (0 Bft) 0,00 %
17.10.2014 20:45 12,0 C 82 % 1019,9 hPa 0,0 l/m 0,4 km/h (0 Bft) SW 216 0 min 0,000 mm 0,0 UV-I 0 W/m 9,0 C 12,0 C 4,0 km/h (1 Bft) 0,00 %
17.10.2014 21:00 12,0 C 82 % 1019,9 hPa 0,0 l/m 0,0 km/h (0 Bft) SW 216 0 min 0,000 mm 0,0 UV-I 0 W/m 9,0 C 12,0 C 0,0 km/h (0 Bft) 0,00 %
17.10.2014 21:15 11,8 C 82 % 1020,1 hPa 0,0 l/m 0,0 km/h (0 Bft) S-SW 196 0 min 0,000 mm 0,0 UV-I 0 W/m 8,8 C 11,8 C 0,0 km/h (0 Bft) 0,00 %
17.10.2014 21:30 11,8 C 82 % 1020,0 hPa 0,0 l/m 0,0 km/h (0 Bft) SO 138 0 min 0,000 mm 0,0 UV-I 0 W/m 8,8 C 11,8 C 0,0 km/h (0 Bft) 0,00 %
17.10.2014 21:45 11,8 C 82 % 1019,9 hPa 0,0 l/m 0,0 km/h (0 Bft) SW 226 0 min 0,000 mm 0,0 UV-I 0 W/m 8,8 C 11,8 C 0,0 km/h (0 Bft) 0,00 %
17.10.2014 22:00 11,7 C 82 % 1020,3 hPa 0,0 l/m 0,0 km/h (0 Bft) S-SW 193 0 min 0,000 mm 0,0 UV-I 0 W/m 8,7 C 11,7 C 0,0 km/h (0 Bft) 0,00 %
17.10.2014 22:15 11,7 C 82 % 1020,1 hPa 0,0 l/m 0,0 km/h (0 Bft) W 277 0 min 0,000 mm 0,0 UV-I 0 W/m 8,7 C 11,7 C 0,0 km/h (0 Bft) 0,00 %
17.10.2014 22:30 11,7 C 82 % 1020,3 hPa 0,0 l/m 0,0 km/h (0 Bft) SW 218 0 min 0,000 mm 0,0 UV-I 0 W/m 8,7 C 11,7 C 0,0 km/h (0 Bft) 0,00 %
17.10.2014 22:45 11,6 C 82 % 1020,4 hPa 0,0 l/m 0,0 km/h (0 Bft) O-SO 123 0 min 0,000 mm 0,0 UV-I 0 W/m 8,6 C 11,6 C 0,0 km/h (0 Bft) 0,00 %
17.10.2014 23:00 11,6 C 82 % 1020,4 hPa 0,0 l/m 0,0 km/h (0 Bft) S 187 0 min 0,000 mm 0,0 UV-I 0 W/m 8,6 C 11,6 C 0,0 km/h (0 Bft) 0,00 %
17.10.2014 23:15 11,4 C 83 % 1020,5 hPa 0,0 l/m 0,0 km/h (0 Bft) SW 224 0 min 0,000 mm 0,0 UV-I 0 W/m 8,6 C 11,4 C 0,0 km/h (0 Bft) 0,00 %
17.10.2014 23:30 11,0 C 83 % 1020,7 hPa 0,0 l/m 0,0 km/h (0 Bft) S-SW 192 0 min 0,000 mm 0,0 UV-I 0 W/m 8,2 C 11,0 C 0,0 km/h (0 Bft) 0,00 %
17.10.2014 23:45 10,8 C 84 % 1020,9 hPa 0,0 l/m 0,0 km/h (0 Bft) SW 220 0 min 0,000 mm 0,0 UV-I 0 W/m 8,2 C 10,8 C 0,0 km/h (0 Bft) 0,00 %
_ Min-Zeit 23:45 17:00 09:15 - 00:30 - - - - - - 23:45 23:45 00:30 00:00
Minimum _ 10,8 C 78 % 1005,8 hPa - 0,0 km/h (0 Bft) - - - - - - 8,2 C 10,8 C 0,0 km/h (0 Bft) 0,00 %
_ Max-Zeit 16:45 03:30 23:45 10:45 09:15 - - 16:45 00:00 12:45 17:00 00:30 16:45 09:15 00:00
Maximum _ 14,2 C 85 % 1020,9 hPa 1,5 l/m 8,3 km/h
S-SO (2 Bft)
- - 15 min 0,000 mm 2,0 UV-I 235 W/m 11,0 C 14,2 C 11,9 km/h
S-SO (2 Bft)
0,00 %
Durchschnitt _ 12,8 C 83 % 1012,8 hPa #8,7 l/m 0,5 km/h (0 Bft) W-SW - #30 min. #0,000 mm 1,3 UV-I 80 W/m 10,0 C 12,8 C 1,5 km/h (1 Bft) 0,00 %